{"data":{"norad_id":51854,"intl_designator":"2022-022C","name":"STARLINK-3541","alt_names":[],"object_type":"PAYLOAD","status":"ACTIVE","operator":null,"country":"US","launch_date":"2022-03-03","launch_site_code":"AFETR","launch_vehicle":null,"mission":null,"orbit_class":"UNKNOWN","rcs_meters":null,"size_class":null,"mass_kg":null,"dimensions":null,"purposes":["comms"],"wikipedia_slug":null,"has_3d_model":false,"image_url":null,"decayed_at":null,"tle_current":{"epoch":"2026-05-25T02:26:05.336160Z","epoch_age_seconds":60289,"freshness":"FRESH","line1":"1 51854U 22022C   26145.10145065  .00019844  00000+0  99500-3 0  9992","line2":"2 51854  53.2153  30.6139 0003410 108.3089 251.8278 15.17354624234632","mean_motion":15.17354624,"eccentricity":0.000341,"inclination_deg":53.2153,"raan_deg":30.6139,"arg_perigee_deg":108.3089,"mean_anomaly_deg":251.8278,"bstar":0.000995,"rev_number":23463,"period_min":94.902007561286,"perigee_km":511.48920478562,"apogee_km":516.18953266909,"semimajor_km":6891.9763687274,"source":"CELESTRAK","updated_at":"2026-05-25T13:38:16.959658Z"}}}